Tracking 25648 objects as of 17-May-2022
HD Live streaming from Space Station
objects crossing your sky now

COSMOS 2251 DEB

Track COSMOS 2251 DEB now!
10-day predictions


NORAD ID: 36002
Int'l Code: 1993-036AWU
Perigee: 605.0 km
Apogee: 707.9 km
Inclination: 74.0 °
Period: 97.7 minutes
Semi major axis: 7027 km
RCS: 0.0085 m2 (small)
Launch date: June 16, 1993
Source: Commonwealth of Independent States (former USSR) (CIS)
Launch site: PLESETSK MISSILE AND SPACE COMPLEX (PKMTR)

Note: This is SATELLITE DEBRIS
aabbcc
Your satellite tracking list
Your tracking list is empty




NASA's NSSDC Master Catalog

Two Line Element Set (TLE):
1 36002U 93036AWU 22137.03464164  .00006263  00000-0  92362-3 0  9997
2 36002  74.0154  54.0222 0073147 159.4000 201.0150 14.73690601478960
Source of the keplerian elements: AFSPC